Date,TemperatureHighF,TemperatureAvgF,TemperatureLowF,DewpointHighF,DewpointAvgF,DewpointLowF,HumidityHigh,HumidityAvg,HumidityLow,PressureMaxIn,PressureMinIn,WindSpeedMaxMPH,WindSpeedAvgMPH,GustSpeedMaxMPH,PrecipitationSumIn
2013-1-1,24.1,13.0,3.2,11.1,-59.9,-99.9,83,23,50,25.31,25.13,8,2,11,0.00
2013-1-2,21.7,9.7,0.1,6.6,-76.0,-99.9,65,12,47,25.34,25.25,7,1,13,0.00
2013-1-3,22.3,9.1,-4.0,2.5,-74.7,-99.9,48,11,39,25.42,25.34,6,1,8,0.00
2013-1-4,21.2,7.4,-2.2,0.3,-79.1,-99.9,52,10,41,25.37,25.25,5,1,8,0.00
2013-1-5,21.2,7.3,-5.4,1.4,-75.4,-99.9,51,11,42,25.42,25.31,7,1,10,0.00
2013-1-6,21.2,7.5,-3.1,1.8,-87.5,-99.9,56,6,48,25.39,25.16,6,1,9,0.00
2013-1-7,21.9,9.4,-1.3,10.8,-75.3,-99.9,79,13,43,25.19,25.10,9,2,12,0.00
2013-1-8,29.5,13.5,1.6,8.8,-49.5,-99.9,71,25,39,25.37,25.10,7,1,10,0.00
2013-1-9,31.1,18.3,6.1,14.7,-29.2,-99.9,80,36,40,25.39,25.13,8,2,11,0.00
2013-1-10,45.1,24.0,9.9,23.7,-23.1,-99.9,88,38,28,25.13,24.57,15,3,48,0.00
2013-1-11,43.7,24.5,9.3,27.5,-10.5,-99.9,94,37,16,24.92,24.54,20,8,34,0.00
2013-1-12,21.2,8.7,0.1,-0.4,-82.7,-99.9,47,7,37,25.01,24.92,7,2,10,0.00
2013-1-13,21.2,6.4,1.6,4.3,-96.1,-99.9,61,2,52,25.10,25.01,6,1,9,0.00
2013-1-14,21.2,2.8,-8.0,-99.9,-99.9,-99.9,0,0,100,25.25,25.10,7,1,10,0.00
2013-1-15,21.2,5.2,-9.4,-7.8,-90.0,-99.9,35,4,34,25.45,25.25,6,2,9,0.00
2013-1-16,24.6,9.2,-1.8,0.7,-72.8,-99.9,46,11,33,25.51,25.39,8,2,10,0.00
2013-1-17,23.9,11.2,0.9,4.1,-62.5,-99.9,59,17,39,25.54,25.42,6,2,10,0.00
2013-1-18,23.5,12.8,0.5,6.4,-63.5,-99.9,69,17,45,25.45,25.34,6,1,9,0.00
2013-1-19,31.3,14.3,1.9,10.4,-53.2,-99.9,82,23,41,25.45,25.37,7,1,10,0.00
2013-1-20,26.8,14.2,-0.4,10.9,-50.6,-99.9,78,26,43,25.39,25.28,7,1,10,0.00
2013-1-21,28.2,15.1,2.7,13.8,-37.1,-99.9,83,34,42,25.39,25.31,7,2,11,0.00
2013-1-22,30.7,16.1,3.2,15.3,-40.0,-99.9,77,30,40,25.39,25.31,6,2,8,0.00
2013-1-23,25.5,16.0,1.8,11.3,-36.2,-99.9,86,33,44,25.42,25.34,7,2,13,0.00
2013-1-24,31.1,23.9,15.3,21.2,14.2,7.5,79,67,51,25.37,25.28,5,1,8,0.00
2013-1-25,33.1,30.2,27.1,30.6,26.5,20.5,96,86,72,25.34,25.22,4,1,7,0.00
2013-1-26,39.0,34.4,31.5,37.8,33.0,30.4,96,95,92,25.22,24.89,5,1,7,0.00
2013-1-27,44.6,35.6,32.5,40.6,32.8,29.3,95,89,70,24.98,24.77,11,2,20,0.00
2013-1-28,39.6,33.5,26.2,35.2,25.4,7.9,94,74,42,24.89,24.75,17,6,23,0.00
2013-1-29,28.8,23.7,19.0,17.1,11.1,4.3,85,59,44,25.10,24.86,12,5,16,0.00
2013-1-30,31.5,24.6,16.3,17.1,13.4,9.1,84,64,42,25.19,25.10,6,2,10,0.00
2013-1-31,39.0,29.2,17.6,22.8,17.7,12.7,88,63,45,25.34,25.19,8,2,12,0.00